User: anonymous   Login
Location: Unspecified
(0.0000°N, 0.0000°E)
Time: 23:27:25
(UTC+00:00)
Language:

FAST 1 (USA 222) - Orbit

View from above orbital plane
View from above orbital plane
View from above satellite
View from above satellite

Ground track
Ground track

The orbit data is extracted from the following two-line orbital elements,

1 37227U 10062F   18038.18061987 0.00000550  00000-0  73048-4 0    09
2 37227  71.9659  77.2758 0010000  71.7032 288.2967 14.79708098    02
Epoch (UTC): 07 February 2018 04:20:05
Eccentricity: 0.0010000
inclination: 71.9659°
perigee height: 623 km
apogee height: 637 km
right ascension of ascending node: 77.2758°
argument of perigee: 71.7032°
revolutions per day: 14.79708098
mean anomaly at epoch: 288.2967°
orbit number at epoch: 0

The dashed part of the orbit path shows where the satellite is in the earth's shadow,  

DLR